Weather History for San Sebastian, Spain

Change the Weather History Date:

Tuesday, January 8, 2013

  Actual Average Record
Temperature  
Mean Temperature 47 °F -  
Max Temperature 53 °F 53 °F 69 °F (2014)
Min Temperature 41 °F 41 °F 26 °F (2009)
Degree Days  
Heating Degree Days 18    
Moisture  
Dew Point 41 °F    
Average Humidity 83    
Maximum Humidity 93    
Minimum Humidity 67    
Precipitation  
Precipitation 0.00 in - - ()
Sea Level Pressure  
Sea Level Pressure 30.37 in    
Wind  
Wind Speed 2 mph ()    
Max Wind Speed 5 mph    
Max Gust Speed -    
Visibility 6.2 miles    
Events      
Averages and records for this station are not official NWS values.
T = Trace of Precipitation, MM = Missing Value Source: Averaged Metar Reports

Daily Weather History Graph

Daily Weather History Graph

Search for Another Location

Airport:

Trip Planner

Search our weather history database for the weather conditions in past years. The results will help you decide how hot, cold, wet, or windy it might be!

Date:

Astronomy

Jan. 08, 2013 Rise Set
Actual Time 8:39 AM CET 5:48 PM CET
Civil Twilight 8:07 AM CET 6:21 PM CET
Nautical Twilight 7:31 AM CET 6:56 PM CET
Astronomical Twilight 6:56 AM CET 7:31 PM CET
Moon 4:54 AM CET (1/8) 2:38 PM CET (1/8)
Length of Visible Light 10h 13m
Length of Day
9h 09m
Waning Crescent, 16% of the Moon is Illuminated
Jan 8
Waning Crescent
Jan 11
New
Jan 19
First Quarter
Jan 27
Full
Feb 3
Last Quarter

Hourly Weather History & Observations

Time (CET) Temp. Windchill Dew Point Humidity Pressure Visibility Wind Dir Wind Speed Gust Speed Precip Events Conditions
5:30 AM 42.8 °F - 39.2 °F 87% 30.36 in 6.2 mi Variable 2.3 mph - N/A   Mostly Cloudy
6:00 AM 42.8 °F 41.1 °F 39.2 °F 87% 30.36 in 6.2 mi SE 3.5 mph - N/A   Mostly Cloudy
6:30 AM 42.8 °F 41.1 °F 39.2 °F 87% 30.36 in 6.2 mi SE 3.5 mph - N/A   Scattered Clouds
7:00 AM 42.8 °F - 39.2 °F 87% 30.36 in 6.2 mi Variable 2.3 mph - N/A   Partly Cloudy
7:30 AM 41.0 °F 39.0 °F 39.2 °F 93% 30.36 in - SE 3.5 mph - N/A   Clear
8:00 AM 41.0 °F 39.0 °F 39.2 °F 93% 30.39 in - South 3.5 mph - N/A   Clear
8:30 AM 41.0 °F 39.0 °F 39.2 °F 93% 30.39 in - SE 3.5 mph - N/A   Clear
9:00 AM 41.0 °F - 39.2 °F 93% 30.39 in - Variable 2.3 mph - N/A   Clear
9:30 AM 41.0 °F - 39.2 °F 93% 30.39 in - Variable 2.3 mph - N/A   Clear
10:00 AM 42.8 °F 41.1 °F 39.2 °F 87% 30.39 in - SE 3.5 mph - N/A   Clear
10:30 AM 42.8 °F - 39.2 °F 87% 30.42 in - Variable 2.3 mph - N/A   Clear
11:00 AM 44.6 °F - 41.0 °F 87% 30.42 in - Variable 2.3 mph - N/A   Clear
11:30 AM 46.4 °F 45.2 °F 41.0 °F 81% 30.42 in - SE 3.5 mph - N/A   Clear
12:00 PM 48.2 °F - 41.0 °F 76% 30.42 in - Variable 2.3 mph - N/A   Clear
12:30 PM 48.2 °F - 41.0 °F 76% 30.39 in - ESE 3.5 mph - N/A   Clear
1:00 PM 51.8 °F - 42.8 °F 71% 30.39 in 6.2 mi Variable 2.3 mph - N/A   Partly Cloudy
1:30 PM 53.6 °F - 42.8 °F 67% 30.39 in 6.2 mi Calm Calm - N/A   Partly Cloudy
2:00 PM 53.6 °F - 42.8 °F 67% 30.36 in 6.2 mi Variable 1.2 mph - N/A   Partly Cloudy
2:30 PM 53.6 °F - 44.6 °F 72% 30.36 in 6.2 mi Variable 2.3 mph - N/A   Partly Cloudy
3:00 PM 53.6 °F - 44.6 °F 72% 30.36 in 6.2 mi North 3.5 mph - N/A   Partly Cloudy
3:30 PM 53.6 °F - 44.6 °F 72% 30.36 in - North 4.6 mph - N/A   Clear
4:00 PM 51.8 °F - 44.6 °F 76% 30.36 in - North 3.5 mph - N/A   Clear
5:00 PM 51.8 °F - 44.6 °F 76% 30.36 in - Variable 1.2 mph - N/A   Clear
5:30 PM 51.8 °F - 44.6 °F 76% 30.36 in - Variable 1.2 mph - N/A   Clear
6:00 PM 50.0 °F - 44.6 °F 82% 30.36 in - Calm Calm - N/A   Clear
6:30 PM 48.2 °F - 44.6 °F 87% 30.36 in - Variable 2.3 mph - N/A   Clear
7:00 PM 44.6 °F - 42.8 °F 93% 30.36 in - Variable 2.3 mph - N/A   Clear
7:30 PM 44.6 °F - 41.0 °F 87% 30.36 in - Variable 2.3 mph - N/A   Clear
8:00 PM 44.6 °F - 41.0 °F 87% 30.36 in - Variable 2.3 mph - N/A   Clear
8:30 PM 42.8 °F - 41.0 °F 93% 30.36 in - Variable 2.3 mph - N/A   Clear
9:00 PM 42.8 °F - 41.0 °F 93% 30.36 in - Variable 2.3 mph - N/A   Clear
9:30 PM 42.8 °F - 39.2 °F 87% 30.36 in - Variable 2.3 mph - N/A   Clear